TimeCDT,TemperatureF,Dew PointF,Humidity,Sea Level PressureIn,VisibilityMPH,Wind Direction,Wind SpeedMPH,Gust SpeedMPH,PrecipitationIn,Events,Conditions,WindDirDegrees,DateUTC
12:15 AM,47.3,43.5,87,29.96,10.0,Calm,Calm,-,N/A,,Clear,0,2013-10-21 05:15:00
12:35 AM,48.2,43.7,84,29.96,10.0,East,3.5,-,N/A,,Clear,100,2013-10-21 05:35:00
12:55 AM,47.1,43.3,87,29.96,10.0,South,5.8,-,N/A,,Clear,190,2013-10-21 05:55:00
1:15 AM,46.6,43.2,88,29.96,10.0,Calm,Calm,-,N/A,,Clear,0,2013-10-21 06:15:00
1:35 AM,47.1,43.5,87,29.96,10.0,South,3.5,-,N/A,,Clear,170,2013-10-21 06:35:00
1:55 AM,44.8,43.0,93,29.96,10.0,Calm,Calm,-,N/A,,Mostly Cloudy,0,2013-10-21 06:55:00
2:15 AM,46.2,43.0,88,29.96,10.0,West,4.6,-,N/A,,Mostly Cloudy,270,2013-10-21 07:15:00
2:35 AM,46.0,43.9,92,29.96,10.0,South,3.5,-,N/A,,Scattered Clouds,170,2013-10-21 07:35:00
2:55 AM,46.0,43.9,92,29.97,10.0,South,4.6,-,N/A,,Clear,190,2013-10-21 07:55:00
3:15 AM,46.6,44.8,93,29.97,10.0,South,4.6,-,N/A,,Clear,170,2013-10-21 08:15:00
3:35 AM,48.0,45.9,92,29.98,10.0,Calm,Calm,-,N/A,,Mostly Cloudy,0,2013-10-21 08:35:00
3:55 AM,48.0,46.6,95,29.97,10.0,Calm,Calm,-,N/A,,Mostly Cloudy,0,2013-10-21 08:55:00
4:15 AM,48.6,46.9,94,29.96,10.0,Calm,Calm,-,N/A,,Mostly Cloudy,0,2013-10-21 09:15:00
4:35 AM,49.1,47.3,93,29.96,10.0,SE,4.6,-,N/A,,Light Drizzle,140,2013-10-21 09:35:00
4:55 AM,50.0,47.7,92,29.95,10.0,East,5.8,-,N/A,,Light Drizzle,100,2013-10-21 09:55:00
5:15 AM,50.5,48.2,92,29.97,10.0,Calm,Calm,-,N/A,,Overcast,0,2013-10-21 10:15:00
5:35 AM,50.5,47.8,90,29.98,10.0,South,4.6,-,N/A,Rain,Light Rain,170,2013-10-21 10:35:00
5:55 AM,50.4,48.7,94,29.93,10.0,East,8.1,-,N/A,,Overcast,90,2013-10-21 10:55:00
6:15 AM,50.9,49.1,94,29.96,10.0,Calm,Calm,-,N/A,Rain,Light Rain,0,2013-10-21 11:15:00
6:35 AM,50.4,49.1,95,29.99,10.0,Calm,Calm,-,N/A,,Scattered Clouds,0,2013-10-21 11:35:00
6:55 AM,50.5,49.3,95,29.99,10.0,Calm,Calm,-,0.01,Rain,Light Rain,0,2013-10-21 11:55:00
7:15 AM,50.9,49.3,94,30.01,10.0,North,4.6,-,N/A,,Overcast,360,2013-10-21 12:15:00
7:35 AM,50.9,49.1,94,30.01,10.0,North,4.6,-,N/A,,Overcast,360,2013-10-21 12:35:00
7:55 AM,50.9,49.1,94,30.02,10.0,NNE,6.9,-,N/A,,Overcast,20,2013-10-21 12:55:00
8:15 AM,50.9,48.6,92,30.02,10.0,North,6.9,-,N/A,,Overcast,10,2013-10-21 13:15:00
8:35 AM,51.8,48.9,90,30.03,10.0,North,5.8,-,N/A,,Overcast,10,2013-10-21 13:35:00
8:55 AM,52.9,48.9,86,30.04,10.0,North,5.8,-,N/A,,Overcast,10,2013-10-21 13:55:00
9:15 AM,53.4,48.2,82,30.05,10.0,North,10.4,-,N/A,Thunderstorm,Overcast,360,2013-10-21 14:15:00
9:35 AM,52.3,48.2,86,30.06,10.0,North,9.2,-,N/A,,Overcast,360,2013-10-21 14:35:00
9:55 AM,52.0,48.4,88,30.06,10.0,North,12.7,19.6,N/A,Rain-Thunderstorm,Light Thunderstorms and Rain,10,2013-10-21 14:55:00
10:15 AM,49.8,47.3,91,30.07,3.0,North,15.0,18.4,0.08,Rain-Thunderstorm,Heavy Thunderstorms and Rain,360,2013-10-21 15:15:00
10:35 AM,49.3,47.1,92,30.09,10.0,North,12.7,16.1,0.10,Rain-Thunderstorm,Light Thunderstorms and Rain,10,2013-10-21 15:35:00
10:55 AM,49.5,47.3,92,30.09,10.0,NNE,8.1,-,0.11,Rain-Thunderstorm,Light Thunderstorms and Rain,20,2013-10-21 15:55:00
11:15 AM,50.5,47.5,89,30.09,10.0,NNE,13.8,18.4,N/A,,Overcast,20,2013-10-21 16:15:00
11:35 AM,50.9,47.1,87,30.09,10.0,NNE,11.5,18.4,N/A,Thunderstorm,Overcast,20,2013-10-21 16:35:00
11:55 AM,51.8,46.4,82,30.09,10.0,North,11.5,24.2,N/A,,Overcast,10,2013-10-21 16:55:00
12:15 PM,52.9,45.5,76,30.09,10.0,North,16.1,23.0,N/A,,Overcast,10,2013-10-21 17:15:00
12:35 PM,53.4,44.1,71,30.10,10.0,NNE,12.7,21.9,N/A,,Overcast,20,2013-10-21 17:35:00
12:55 PM,54.7,43.3,66,30.09,10.0,North,17.3,23.0,N/A,,Overcast,10,2013-10-21 17:55:00
1:15 PM,53.6,42.4,66,30.09,10.0,North,10.4,17.3,N/A,,Overcast,10,2013-10-21 18:15:00
1:35 PM,54.0,42.3,65,30.08,10.0,North,13.8,19.6,N/A,,Overcast,10,2013-10-21 18:35:00
1:55 PM,53.6,41.4,63,30.07,10.0,North,12.7,18.4,N/A,,Overcast,10,2013-10-21 18:55:00
2:15 PM,53.4,40.8,62,30.08,10.0,NNE,9.2,16.1,N/A,,Overcast,20,2013-10-21 19:15:00
2:35 PM,52.7,40.5,63,30.07,10.0,NNE,11.5,17.3,N/A,,Overcast,20,2013-10-21 19:35:00
2:55 PM,54.5,40.8,60,30.06,10.0,North,11.5,-,N/A,,Overcast,10,2013-10-21 19:55:00
3:15 PM,54.9,40.3,58,30.07,10.0,North,10.4,16.1,N/A,,Mostly Cloudy,10,2013-10-21 20:15:00
3:35 PM,54.1,39.2,57,30.07,10.0,NNE,9.2,-,N/A,,Overcast,20,2013-10-21 20:35:00
3:55 PM,54.3,37.9,54,30.07,10.0,NNE,8.1,-,N/A,,Mostly Cloudy,20,2013-10-21 20:55:00
4:15 PM,57.6,36.3,45,30.07,10.0,NNE,9.2,-,N/A,,Scattered Clouds,30,2013-10-21 21:15:00
4:35 PM,58.6,37.4,45,30.07,10.0,NNE,6.9,-,N/A,,Clear,30,2013-10-21 21:35:00
4:55 PM,59.7,38.5,45,30.08,10.0,North,6.9,-,N/A,,Clear,360,2013-10-21 21:55:00
5:15 PM,59.0,39.0,48,30.08,10.0,NNE,5.8,-,N/A,,Clear,30,2013-10-21 22:15:00
5:35 PM,58.6,39.4,49,30.08,10.0,NNE,5.8,-,N/A,,Clear,30,2013-10-21 22:35:00
5:55 PM,55.8,39.4,54,30.08,10.0,NE,4.6,-,N/A,,Clear,40,2013-10-21 22:55:00
6:15 PM,55.2,41.7,60,30.09,10.0,NE,3.5,-,N/A,,Clear,40,2013-10-21 23:15:00
6:35 PM,53.8,41.2,62,30.09,10.0,Calm,Calm,-,N/A,,Clear,0,2013-10-21 23:35:00
6:55 PM,52.9,40.8,64,30.09,10.0,North,3.5,-,N/A,,Clear,350,2013-10-21 23:55:00
7:15 PM,50.2,40.3,69,30.10,10.0,North,3.5,-,N/A,,Clear,350,2013-10-22 00:15:00
7:35 PM,48.2,40.5,75,30.10,10.0,North,3.5,-,N/A,,Clear,10,2013-10-22 00:35:00
7:55 PM,47.3,40.5,77,30.10,7.0,North,3.5,-,N/A,,Clear,10,2013-10-22 00:55:00
8:15 PM,43.0,40.3,90,30.11,10.0,North,4.6,-,N/A,,Clear,360,2013-10-22 01:15:00
8:35 PM,44.1,40.1,86,30.11,10.0,North,3.5,-,N/A,,Clear,350,2013-10-22 01:35:00
8:55 PM,43.3,39.0,85,30.11,10.0,North,3.5,-,N/A,,Clear,360,2013-10-22 01:55:00
9:15 PM,43.7,39.2,84,30.11,5.0,North,4.6,-,N/A,,Haze,360,2013-10-22 02:15:00
9:35 PM,40.8,38.8,93,30.12,10.0,North,3.5,-,N/A,,Clear,360,2013-10-22 02:35:00
9:55 PM,42.1,38.8,88,30.12,10.0,Calm,Calm,-,N/A,,Clear,0,2013-10-22 02:55:00
10:15 PM,39.4,37.8,94,30.12,10.0,Calm,Calm,-,N/A,,Clear,0,2013-10-22 03:15:00
10:35 PM,41.7,39.9,93,30.13,3.0,Calm,Calm,-,N/A,,Clear,0,2013-10-22 03:35:00
10:55 PM,39.6,38.1,95,30.12,10.0,Calm,Calm,-,N/A,,Clear,0,2013-10-22 03:55:00
11:15 PM,39.2,37.9,95,30.12,10.0,Calm,Calm,-,N/A,,Clear,0,2013-10-22 04:15:00
11:35 PM,38.1,37.4,97,30.12,10.0,Calm,Calm,-,N/A,,Clear,0,2013-10-22 04:35:00
11:55 PM,38.5,37.9,98,30.12,10.0,Calm,Calm,-,N/A,,Clear,0,2013-10-22 04:55:00